Wind_Speed
13 13 13 13 14 14 14 14 14 13 13 13 13 14 14 14 15 15 15 15 16 16 16 16 16 15 14 14 14 14 15 15 15 15 15 15 15 15
15 15 15 16 16 15 14 14 14 14 14 14 15 15 15 15 16 17 17 17 17 17 17 17 17 16 16 15 15 15 15 15 16 16 16 16 16 16
15 15 16 16 16 16 16 16 16 15 15 15 15 16 17 17 17 17 17 17 17 18 18 17 17 17 17 17 16 16 16 16 16 16 16 16 16 17
16 16 16 17 17 17 17 17 17 17 16 16 16 16 17 17 17 18 18 19 19 18 18 18 19 18 18 18 18 18 18 18 18 18 18 18 18 19
17 17 17 17 17 17 17 18 18 18 18 18 18 18 18 18 18 19 19 19 19 19 20 20 20 20 19 19 19 19 19 19 19 19 19 19 19 20
17 17 17 17 18 18 18 18 19 19 20 20 20 20 20 19 20 20 20 20 20 21 21 21 20 20 21 21 21 21 20 20 20 20 20 21 21 22
18 18 18 18 19 19 19 20 20 21 21 21 21 21 21 21 22 22 21 21 21 21 21 21 21 21 21 22 22 22 21 21 21 22 22 23 23 23
19 20 19 19 20 20 21 21 22 22 22 22 22 22 22 22 22 22 22 22 22 22 22 22 23 23 22 22 22 23 23 23 23 23 23 24 25 25
21 21 21 21 21 21 22 22 22 23 23 23 23 22 22 23 23 24 24 24 23 23 23 23 23 23 23 22 23 23 24 25 25 25 25 25 24 25
21 22 22 22 22 23 23 23 24 24 24 24 24 23 23 23 24 24 24 24 25 25 25 24 23 23 23 23 24 24 24 25 25 26 26 25 25 25
23 22 23 23 23 24 24 25 26 26 26 26 25 25 25 25 25 25 25 25 25 25 26 25 25 24 24 24 24 25 25 25 26 27 27 27 27 27
22 23 23 24 24 24 24 25 26 26 26 26 26 26 26 26 26 26 26 26 26 26 25 26 26 26 25 24 25 26 26 26 26 27 27 27 27 28
23 24 24 24 25 25 25 25 25 26 26 27 27 27 27 28 27 27 27 27 26 26 25 26 26 26 26 26 25 26 27 27 27 27 27 27 28 28
25 25 25 25 26 26 26 26 26 26 26 27 27 27 28 28 28 28 28 28 28 28 28 28 28 28 28 28 27 27 27 28 28 28 29 29 30 30
25 26 26 26 26 26 26 26 27 27 27 27 26 26 27 27 27 28 28 29 29 29 29 30 30 30 29 29 29 29 28 28 29 29 29 30 30 31
25 26 26 27 27 27 27 27 27 27 27 26 26 26 26 26 27 27 28 29 29 29 30 30 30 30 30 30 30 30 29 29 29 29 29 30 31 31
24 24 24 25 26 26 27 27 27 27 27 26 26 26 27 27 27 28 29 29 30 30 29 29 29 29 29 29 28 28 28 28 29 29 30 30 30 30
23 23 23 23 24 24 25 25 26 25 25 25 26 27 27 27 27 28 29 29 29 29 29 28 28 28 28 28 29 28 28 29 29 29 30 29 29 29
23 23 23 22 22 23 23 24 25 24 24 24 25 25 25 26 27 28 29 29 29 28 28 27 27 27 27 28 28 28 28 29 29 29 29 29 28 28
23 23 23 22 22 22 23 23 22 23 23 23 24 24 25 26 26 27 27 27 27 27 27 27 26 27 27 28 28 28 28 28 28 28 29 29 29 30
23 23 23 23 22 22 22 22 22 22 22 23 23 24 24 25 25 25 25 25 25 25 25 26 26 26 26 27 27 27 27 28 28 29 29 29 29 29
23 23 23 23 23 22 21 21 21 21 22 23 23 23 24 24 24 24 24 24 24 24 24 24 25 26 26 26 26 26 26 27 28 28 28 28 28 28
22 22 22 22 22 21 20 21 20 20 21 22 23 24 24 25 25 25 25 24 24 24 24 24 24 25 25 25 26 26 26 26 26 26 27 27 27 27
Wind_Direction
267 267 266 266 267 265 264 265 266 266 267 264 263 262 263 264 265 268 269 270 271 273 276 275 275 277 277 277 276 273 272 272 269 269 270 271 270 270
271 271 267 266 266 266 265 266 265 263 263 264 265 264 265 264 264 265 268 270 271 271 273 273 274 276 278 278 277 277 275 272 270 270 271 272 271 270
271 271 268 266 264 264 263 264 265 264 264 264 267 265 265 264 267 267 268 269 271 271 272 273 272 274 275 276 276 275 275 274 272 269 269 270 271 272
270 269 270 267 265 266 265 264 263 264 265 266 268 269 267 267 269 268 267 268 270 272 273 274 273 273 275 275 274 272 272 272 272 270 270 270 271 273
272 271 271 269 265 265 264 262 262 264 266 266 266 268 269 271 272 270 270 270 270 271 272 273 274 273 274 274 273 272 271 270 269 269 269 270 273 274
273 274 272 272 270 269 267 265 264 265 266 266 267 269 269 270 272 271 271 271 270 270 271 272 274 273 271 270 270 271 269 268 268 268 270 271 273 274
271 273 273 273 273 271 270 269 268 267 268 269 269 271 270 269 271 271 270 270 271 272 271 272 273 273 273 270 269 268 267 267 267 268 270 272 273 274
270 272 273 274 274 272 271 270 269 270 270 269 268 270 271 270 269 269 269 270 271 272 273 273 274 273 270 269 269 268 267 267 267 269 270 271 272 273
270 272 272 273 275 274 272 271 270 271 272 271 268 270 271 272 270 269 270 271 272 272 272 274 274 273 270 269 270 270 269 268 267 268 269 271 272 272
271 272 272 272 274 276 276 275 274 273 273 273 270 270 272 273 272 271 271 270 271 273 274 273 273 273 270 270 270 270 270 270 269 269 270 271 273 272
270 271 272 274 275 276 276 275 274 273 273 272 270 270 272 273 273 271 271 271 271 272 273 272 272 273 273 271 270 271 271 271 270 271 271 272 273 273
270 271 272 274 275 276 277 275 273 272 272 273 271 270 270 270 270 271 270 271 271 269 270 271 271 272 272 272 270 270 271 271 271 272 272 273 274 275
271 272 274 274 276 277 277 276 274 273 273 275 273 271 268 268 269 270 271 271 270 268 269 271 272 272 273 273 273 272 271 272 272 273 274 274 275 276
272 272 272 273 275 276 276 276 276 277 276 276 274 272 270 269 269 269 269 269 269 269 270 271 272 273 274 274 274 273 272 273 274 274 274 274 275 276
275 274 274 274 274 274 275 278 279 277 276 276 276 274 271 270 268 268 267 268 269 269 270 270 271 273 273 274 275 275 273 273 274 274 275 275 276 275
279 277 275 275 276 275 275 277 278 277 276 276 276 274 273 270 268 269 269 270 270 270 271 270 270 271 272 274 275 275 275 274 275 275 275 276 275 275
280 279 278 278 276 276 276 277 279 279 277 276 276 276 273 270 268 269 270 271 270 271 271 271 269 271 272 272 274 275 275 274 276 277 277 277 277 276
281 283 282 281 279 278 277 278 281 280 278 276 277 277 274 272 271 271 270 271 271 271 271 271 270 270 271 273 274 275 275 274 275 277 277 277 277 277
282 283 282 281 281 280 281 280 280 279 278 278 278 276 275 275 274 273 272 271 272 272 271 271 272 271 271 273 275 276 276 275 275 276 277 278 278 279
282 283 283 283 285 284 282 280 278 279 280 280 280 280 279 278 277 277 275 273 273 273 272 272 273 272 271 273 274 275 275 276 274 275 276 278 279 280
285 285 284 284 285 285 283 282 281 281 282 283 284 283 282 280 280 278 276 274 274 274 273 272 271 272 273 274 275 276 276 276 276 277 277 277 279 280
287 286 285 285 285 285 285 287 285 283 283 284 284 285 284 283 281 279 278 276 274 274 274 273 273 273 274 276 278 279 278 278 278 278 278 277 277 278
287 286 286 287 287 286 287 289 288 287 285 285 285 286 287 285 283 282 280 278 276 276 276 276 276 276 277 278 279 280 279 279 279 279 279 280 279 278
Height
5836 5837 5838 5838 5839 5839 5840 5841 5843 5843 5844 5845 5846 5847 5848 5849 5849 5850 5850 5851 5851 5851 5851 5851 5851 5851 5850 5850 5850 5850 5850 5851 5851 5851 5852 5852 5852 5852
5833 5833 5834 5834 5835 5836 5837 5837 5838 5840 5841 5841 5842 5843 5844 5845 5845 5845 5846 5846 5846 5847 5847 5847 5846 5846 5846 5846 5846 5846 5846 5847 5847 5847 5847 5848 5848 5848
5829 5829 5830 5831 5831 5832 5833 5833 5834 5835 5836 5837 5838 5838 5839 5840 5840 5840 5840 5841 5842 5842 5842 5842 5842 5842 5842 5842 5842 5842 5842 5842 5842 5843 5843 5843 5843 5843
5824 5825 5825 5826 5827 5828 5828 5829 5830 5831 5832 5833 5833 5834 5834 5835 5835 5836 5836 5836 5837 5837 5837 5837 5837 5837 5837 5837 5837 5837 5837 5837 5838 5838 5838 5838 5838 5838
5820 5820 5821 5821 5822 5823 5823 5824 5825 5826 5827 5828 5829 5829 5829 5830 5830 5831 5831 5831 5831 5831 5831 5831 5831 5831 5832 5832 5832 5832 5832 5832 5832 5833 5833 5833 5833 5833
5815 5815 5816 5816 5817 5817 5818 5819 5820 5821 5821 5822 5823 5823 5824 5824 5824 5825 5825 5825 5825 5825 5825 5825 5825 5826 5826 5826 5826 5826 5826 5826 5827 5827 5827 5827 5827 5827
5810 5810 5811 5811 5812 5812 5813 5814 5814 5815 5815 5816 5817 5817 5817 5818 5818 5818 5819 5819 5819 5819 5819 5819 5820 5820 5819 5819 5820 5820 5820 5820 5820 5821 5821 5821 5821 5821
5804 5805 5805 5806 5806 5807 5807 5808 5808 5809 5809 5810 5810 5811 5811 5811 5811 5812 5812 5813 5813 5814 5813 5813 5813 5813 5813 5813 5813 5813 5813 5814 5814 5814 5814 5814 5814 5814
5799 5799 5800 5800 5800 5801 5801 5801 5802 5802 5803 5803 5803 5804 5804 5804 5804 5805 5805 5805 5806 5806 5806 5806 5806 5806 5806 5806 5806 5806 5806 5807 5807 5807 5807 5807 5807 5807
5792 5793 5793 5794 5794 5794 5794 5794 5795 5795 5795 5796 5796 5797 5797 5797 5797 5798 5798 5798 5799 5799 5799 5799 5799 5799 5799 5799 5799 5799 5799 5799 5799 5799 5799 5799 5799 5799
5786 5786 5787 5787 5787 5787 5787 5787 5787 5787 5787 5788 5789 5789 5789 5789 5789 5790 5790 5791 5791 5792 5791 5791 5792 5792 5792 5792 5792 5792 5792 5792 5792 5792 5792 5792 5791 5791
5779 5779 5780 5780 5780 5780 5780 5780 5780 5780 5780 5781 5781 5781 5781 5782 5782 5782 5783 5783 5783 5783 5783 5783 5784 5784 5784 5785 5785 5784 5784 5784 5784 5784 5783 5783 5783 5783
5772 5772 5772 5773 5773 5773 5773 5773 5773 5773 5773 5773 5773 5773 5773 5773 5774 5774 5774 5774 5775 5775 5775 5775 5775 5775 5776 5776 5777 5776 5776 5776 5776 5776 5776 5775 5775 5774
5764 5764 5765 5765 5765 5765 5765 5765 5765 5765 5765 5765 5765 5765 5765 5765 5766 5766 5766 5766 5766 5766 5766 5766 5767 5767 5767 5767 5768 5768 5768 5767 5767 5767 5767 5767 5766 5765
5757 5757 5757 5757 5757 5757 5757 5757 5757 5757 5756 5756 5756 5756 5757 5757 5757 5757 5757 5757 5757 5758 5758 5758 5758 5758 5758 5758 5758 5759 5759 5758 5758 5758 5758 5758 5757 5756
5749 5749 5749 5749 5749 5749 5749 5749 5748 5748 5748 5748 5748 5748 5748 5748 5748 5748 5748 5748 5749 5749 5749 5748 5748 5749 5749 5749 5749 5749 5749 5749 5749 5748 5748 5748 5747 5746
5742 5742 5741 5741 5741 5741 5741 5740 5740 5740 5739 5739 5739 5739 5739 5739 5739 5739 5739 5739 5739 5739 5739 5739 5739 5739 5739 5739 5740 5740 5740 5740 5739 5739 5738 5738 5737 5736
5735 5735 5734 5734 5733 5733 5733 5732 5732 5732 5731 5731 5731 5731 5731 5730 5730 5730 5729 5729 5729 5729 5729 5729 5729 5730 5730 5731 5731 5730 5730 5730 5730 5729 5729 5728 5728 5727
5728 5728 5727 5727 5726 5726 5725 5725 5724 5724 5723 5723 5723 5722 5722 5722 5721 5721 5720 5720 5720 5720 5720 5720 5720 5720 5721 5722 5722 5721 5721 5721 5720 5720 5719 5718 5718 5717
5722 5721 5720 5720 5719 5718 5717 5716 5716 5715 5715 5715 5714 5714 5714 5713 5713 5712 5711 5711 5711 5711 5711 5711 5711 5712 5712 5712 5712 5712 5711 5711 5711 5710 5710 5709 5708 5708
5715 5714 5714 5713 5712 5711 5710 5709 5709 5708 5708 5707 5707 5706 5705 5705 5704 5703 5703 5702 5702 5702 5703 5703 5703 5703 5702 5703 5703 5703 5702 5701 5701 5701 5700 5700 5699 5698
5708 5707 5707 5706 5705 5704 5703 5702 5701 5701 5700 5700 5699 5698 5697 5697 5696 5695 5695 5695 5694 5694 5694 5694 5694 5694 5694 5693 5693 5693 5692 5692 5691 5691 5690 5690 5690 5689
5701 5701 5700 5699 5698 5698 5697 5696 5694 5694 5693 5693 5692 5691 5690 5689 5688 5687 5687 5686 5686 5686 5686 5686 5686 5685 5685 5685 5684 5684 5683 5683 5682 5681 5681 5680 5680 5680